Regional Weather Roundup
Issued by NWS

Home | Current Version | Previous Version | Text Only | Print | Product List | Glossary Off
Versions: 1 2 3 4 5 6 7 8 9 10 11 12 13 14 15 16 17 18 19 20 21 22 23 24 25 26 27

000
ASUS45 KBOU 230807
RWRCO

WEATHER ROUNDUP FOR COLORADO
NATIONAL WEATHER SERVICE DENVER/BOULDER CO
200 AM MDT TUE MAY 23 2017

NOTE: "FAIR" INDICATES FEW OR NO CLOUDS BELOW 12000 FEET WITH NO
SIGNIFICANT WEATHER AND/OR OBSTRUCTIONS TO VISIBILITY.

COZ001>005-013-030-031-230900-
...NORTHWEST COLORADO...

CITY           SKY/WX    TMP DP  RH WIND       PRES   REMARKS
CRAIG          FAIR      33  30  88 SE3       30.35R
HAYDEN         CLOUDY    34  28  80 S5        30.34S WCI  30
MEEKER         FAIR      38  34  85 CALM      30.33F
RABBIT EARS PA CLOUDY    27  25  93 N6        30.36F WCI  20
STEAMBOAT SPGS CLOUDY    35  34  96 CALM      30.34S
WALDEN           N/A     32  30  93 CALM      30.35F
$$

COZ006>008-011-230900-
...WEST CENTRAL VALLEYS...

CITY           SKY/WX    TMP DP  RH WIND       PRES   REMARKS
GRAND JUNCTION FAIR      53  36  52 NW10      30.25F
MONTROSE       CLOUDY    49  46  90 E5        30.28S
EAGLE          FAIR      37  35  92 CALM      30.35S
RIFLE          FAIR      47  33  58 W15       30.29R
DELTA          FAIR      54  44  67 NE9       30.23R
NUCLA          MOCLDY    54  36  50 NE8       30.27R
$$

COZ017>023-064>068-230900-
...SOUTHWEST COLORADO...

CITY           SKY/WX    TMP DP  RH WIND       PRES   REMARKS
DURANGO        FAIR      47  26  44 N8        30.16R
CORTEZ         FAIR      41  34  76 E8        30.17R
PAGOSA SPRINGS MOCLDY    43  25  49 CALM      30.21S
TELLURIDE      RAIN      39  37  95 W7        30.36R
WOLF CREEK PAS LGT SNOW  28  28 100 N8        30.42S WCI  20
$$

COZ009-010-012-014-032>034-037-058>063-230900-
...CENTRAL COLORADO...

CITY           SKY/WX    TMP DP  RH WIND       PRES   REMARKS
ASPEN          FAIR      36  34  92 N3        30.30S
BUENA VISTA    FAIR      37  31  79 NW6       30.26F
COPPER MTN     SNOW      25  19  80 MISG      30.36S VSB 1/4
BERTHOUD PASS  CLOUDY    18   7  62 NW5       30.34F WCI  11
COTTONWOOD PAS FAIR      34  32  93 CALM      30.30F
GUNNISON       FAIR      39  35  86 E10       30.28R
KREMMLING      CLOUDY    37  34  87 CALM      30.35R
LEADVILLE      FAIR      28  24  85 N15       30.31F WCI  16
MONARCH PASS   SNOW      25  23  93 E6        30.43R VSB 1/2 WCI  18
SALIDA         CLOUDY    39  37  91 SW7       30.35F
SUNLIGHT       FAIR      27  25  93 CALM      30.41S
WILKERSON PASS MOCLDY    23  21  93 N10G17    30.34F WCI  12
$$

COZ069>075-230900-
...SAN LUIS VALLEY/SANGRE DE CRISTO MOUNTAINS...

CITY           SKY/WX    TMP DP  RH WIND       PRES   REMARKS
ALAMOSA        LGT RAIN  45  36  70 N13G22    30.22R
DEL NORTE      CLOUDY    44  32  64 SW10      30.23F
LA VETA PASS   SNOW      27  27 100 NE12      30.40S VSB 1/2 WCI  16
SAGUACHE       RAIN      43  36  75 N16       30.25R
$$

COZ035-036-038>040-230900-
...NORTHERN COLORADO FRONT RANGE...

CITY           SKY/WX    TMP DP  RH WIND       PRES   REMARKS
DENVER INTL AP MOCLDY    44  36  73 N10       30.23F
DMNS CITY PARK   N/A     41  40  96 NW1G9     30.25R
AURORA         MOCLDY    41  38  87 N3        30.25S
FRONT RANGE AP CLOUDY    43  37  81 N7        30.24F
ERIE MUNI ARPT MOCLDY    42  41  97 CALM      30.25S
BOULDER MUN AP FAIR      43  41  93 CALM      30.26S
CENTENNIAL     FAIR      39  36  89 W3        30.25S
BROOMFIELD     CLOUDY    43  37  81 N6        30.26S
FORT COLLINS   FAIR      40  36  86 NW6       30.25F
LONGMONT       FAIR      46  41  83 CALM      30.27S
$$

COZ041-046-047-076>085-087-088-230900-
...PIKES PEAK/PALMER DIVIDE AND SOUTHERN FOOTHILLS...

CITY           SKY/WX    TMP DP  RH WIND       PRES   REMARKS
COLO. SPRINGS  MOCLDY    43  33  68 NW12      30.24F
A. F. ACADEMY  FAIR      37  33  82 N9        30.24S
SCHRIEVER AFB  MOCLDY    42  32  68 NW16G24   30.24S
CHEYENNE MTN   MOCLDY    41  26  55 NW22G30   30.17F
ELLICOTT       FAIR       1  32 100 N14       30.22F WCI -17
FALCON         FAIR      39  32  76 N16G25    30.24F
FORT CARSON    FAIR      42  33  69 N3        30.22F
LIMON          FAIR      39  37  92 N15       30.20S
MONUMENT HILL  FAIR      32  32 100 NW8       30.27S WCI  25
CANON CITY     NOT AVBL
WALSENBURG     CLOUDY    39  37  93 SW9       30.27S
TRINIDAD       CLOUDY    36  33  89 SW8       30.27F
$$

COZ042>045-048>051-090-091-230900-
...NORTHEAST COLORADO...

CITY           SKY/WX    TMP DP  RH WIND       PRES   REMARKS
GREELEY ARPT   FAIR      44  38  79 NW10      30.24F
AKRON          FAIR      38  34  85 NW12      30.19R
BURLINGTON     FAIR      42  39  89 NW13      30.15S
WRAY           FAIR      43  37  81 NW10      30.15S
YUMA           NOT AVBL
STERLING       FAIR      39  36  87 NW10      30.17F
HOLYOKE        NOT AVBL
FORT MORGAN    FAIR      42  35  76 NW10      30.21F
$$

COZ086-089-092>099-230900-
...SOUTHEAST COLORADO...

CITY           SKY/WX    TMP DP  RH WIND       PRES   REMARKS
PUEBLO         FAIR      50  39  66 N6        30.22F
LA JUNTA       FAIR      48  41  76 W10       30.19F
LAMAR          FAIR      50  39  66 NW10      30.16F
SPRINGFIELD      N/A     46  38  73 NW16G24   30.17S
$$




USA.gov is the U.S. government's official web portal to all federal, state and local government web resources and services.